Tracking 18852 objects as of 24-Nov-2017
HD Live streaming from Space Station
objects crossing your sky now

FENGYUN 1C DEB

Track FENGYUN 1C DEB now!
10-day predictions


NORAD ID: 29933
Int'l Code: 1999-025JF
Perigee: 794.5 km
Apogee: 812.3 km
Inclination: 98.9 °
Period: 100.8 minutes
Semi major axis: 7174 km
RCS: 0.0177 m2 (small)
Launch date: May 10, 1999
Source: People's Republic of China (PRC)
Launch site: Taiyaun Space Center, China (TSC)

Note: This is SATELLITE DEBRIS
aabbcc
Your satellite tracking list
Your tracking list is empty




NASA's NSSDC Master Catalog

Two Line Element Set (TLE):
1 29933U 99025JF  17327.97436664 +.00001309 +00000-0 +53896-3 0  9993
2 29933 098.8614 320.2892 0012404 028.6388 025.4538 14.28642009562877
Source of the keplerian elements: AFSPC